Location: Stoke Bliss
(52.2667°N, 2.5167°W)
Time: 02:03:36
(UTC+00:00)

FALCON 9 DEB - Pass Details

Date: 03 March 2021
Orbit: 367 x 387 km, 53.0° (Epoch: 11 April)

Event Time Altitude Azimuth Distance (km) Brightness Sun altitude
Rises 19:30:04 0° 278° (W) 2,289 8.7 -15.5°
Reaches altitude 10° 19:32:08 10° 279° (W) 1,432 7.1 -15.8°
Maximum altitude 19:35:21 81° 7° (N) 402 2.8 -16.3°
Enters shadow 19:36:08 48° 87° (E) 524 3.1 -16.4°
